<?xml version="1.0" encoding="UTF-8" standalone="no" ?>
<gpx xmlns="http://www.topografix.com/GPX/1/1" xmlns:xsi="http://www.w3.org/2001/XMLSchema-instance" xsi:schemaLocation="http://www.topografix.com/GPX/1/1 http://www.topografix.com/GPX/1/1/gpx.xsd" version="1.1" creator="VisuGPX - https://www.visugpx.com">
  <metadata>
    <name>Essai parcours rouge</name>
  </metadata>
  <trk>
    <name><![CDATA[Essai parcours rouge_2]]></name>
    <trkseg>
      <trkpt lat="47.62849" lon="6.54607">
        <ele>309</ele>
        <time>2020-12-10T18:39:43+01:00</time>
      </trkpt>
      <trkpt lat="47.62849" lon="6.54607">
        <ele>309</ele>
        <time>2020-12-10T18:39:43+01:00</time>
      </trkpt>
      <trkpt lat="47.62852" lon="6.54745">
        <ele>311</ele>
        <time>2020-12-10T18:39:43+01:00</time>
      </trkpt>
      <trkpt lat="47.62881" lon="6.54929">
        <ele>312</ele>
        <time>2020-12-10T18:39:43+01:00</time>
      </trkpt>
      <trkpt lat="47.6287" lon="6.55062">
        <ele>311</ele>
        <time>2020-12-10T18:39:43+01:00</time>
      </trkpt>
      <trkpt lat="47.62896" lon="6.55071">
        <ele>310</ele>
        <time>2020-12-10T18:39:43+01:00</time>
      </trkpt>
      <trkpt lat="47.6298" lon="6.55247">
        <ele>298</ele>
        <time>2020-12-10T18:39:43+01:00</time>
      </trkpt>
      <trkpt lat="47.62936" lon="6.55371">
        <ele>292</ele>
        <time>2020-12-10T18:39:43+01:00</time>
      </trkpt>
      <trkpt lat="47.62988" lon="6.55517">
        <ele>295</ele>
        <time>2020-12-10T18:39:43+01:00</time>
      </trkpt>
      <trkpt lat="47.63049" lon="6.55573">
        <ele>297</ele>
        <time>2020-12-10T18:39:43+01:00</time>
      </trkpt>
      <trkpt lat="47.63052" lon="6.55612">
        <ele>297</ele>
        <time>2020-12-10T18:39:43+01:00</time>
      </trkpt>
      <trkpt lat="47.6311" lon="6.55727">
        <ele>303</ele>
        <time>2020-12-10T18:39:44+01:00</time>
      </trkpt>
      <trkpt lat="47.63182" lon="6.56062">
        <ele>308</ele>
        <time>2020-12-10T18:39:44+01:00</time>
      </trkpt>
      <trkpt lat="47.63194" lon="6.56221">
        <ele>299</ele>
        <time>2020-12-10T18:39:44+01:00</time>
      </trkpt>
      <trkpt lat="47.63257" lon="6.56255">
        <ele>297</ele>
        <time>2020-12-10T18:39:44+01:00</time>
      </trkpt>
      <trkpt lat="47.63373" lon="6.56251">
        <ele>311</ele>
        <time>2020-12-10T18:39:45+01:00</time>
      </trkpt>
      <trkpt lat="47.63463" lon="6.56427">
        <ele>297</ele>
        <time>2020-12-10T18:39:45+01:00</time>
      </trkpt>
      <trkpt lat="47.63538" lon="6.56457">
        <ele>299</ele>
        <time>2020-12-10T18:39:45+01:00</time>
      </trkpt>
      <trkpt lat="47.63471" lon="6.56543">
        <ele>297</ele>
        <time>2020-12-10T18:39:46+01:00</time>
      </trkpt>
      <trkpt lat="47.63538" lon="6.56642">
        <ele>307</ele>
        <time>2020-12-10T18:39:46+01:00</time>
      </trkpt>
      <trkpt lat="47.63665" lon="6.56599">
        <ele>323</ele>
        <time>2020-12-10T18:39:46+01:00</time>
      </trkpt>
      <trkpt lat="47.63795" lon="6.5644">
        <ele>321</ele>
        <time>2020-12-10T18:39:47+01:00</time>
      </trkpt>
      <trkpt lat="47.63986" lon="6.56466">
        <ele>311</ele>
        <time>2020-12-10T18:39:47+01:00</time>
      </trkpt>
      <trkpt lat="47.64119" lon="6.56345">
        <ele>303</ele>
        <time>2020-12-10T18:39:48+01:00</time>
      </trkpt>
      <trkpt lat="47.6455" lon="6.5771">
        <ele>306</ele>
        <time>2020-12-10T18:39:48+01:00</time>
      </trkpt>
      <trkpt lat="47.64599" lon="6.57753">
        <ele>306</ele>
        <time>2020-12-10T18:39:49+01:00</time>
      </trkpt>
      <trkpt lat="47.64504" lon="6.57792">
        <ele>301</ele>
        <time>2020-12-10T18:39:50+01:00</time>
      </trkpt>
      <trkpt lat="47.64452" lon="6.5777">
        <ele>300</ele>
        <time>2020-12-10T18:39:51+01:00</time>
      </trkpt>
      <trkpt lat="47.64301" lon="6.57959">
        <ele>307</ele>
        <time>2020-12-10T18:39:51+01:00</time>
      </trkpt>
      <trkpt lat="47.64293" lon="6.58015">
        <ele>312</ele>
        <time>2020-12-10T18:39:52+01:00</time>
      </trkpt>
      <trkpt lat="47.64113" lon="6.58272">
        <ele>327</ele>
        <time>2020-12-10T18:39:53+01:00</time>
      </trkpt>
      <trkpt lat="47.64113" lon="6.59071">
        <ele>339</ele>
        <time>2020-12-10T18:39:54+01:00</time>
      </trkpt>
      <trkpt lat="47.64041" lon="6.59062">
        <ele>337</ele>
        <time>2020-12-10T18:39:55+01:00</time>
      </trkpt>
      <trkpt lat="47.63836" lon="6.60139">
        <ele>347</ele>
        <time>2020-12-10T18:39:56+01:00</time>
      </trkpt>
      <trkpt lat="47.63766" lon="6.61199">
        <ele>353</ele>
        <time>2020-12-10T18:39:57+01:00</time>
      </trkpt>
      <trkpt lat="47.63769" lon="6.61448">
        <ele>359</ele>
        <time>2020-12-10T18:39:59+01:00</time>
      </trkpt>
      <trkpt lat="47.63778" lon="6.61469">
        <ele>360</ele>
        <time>2020-12-10T18:40:00+01:00</time>
      </trkpt>
      <trkpt lat="47.63642" lon="6.61714">
        <ele>351</ele>
        <time>2020-12-10T18:40:01+01:00</time>
      </trkpt>
      <trkpt lat="47.63581" lon="6.6165">
        <ele>344</ele>
        <time>2020-12-10T18:40:02+01:00</time>
      </trkpt>
      <trkpt lat="47.63575" lon="6.61744">
        <ele>338</ele>
        <time>2020-12-10T18:40:04+01:00</time>
      </trkpt>
      <trkpt lat="47.63552" lon="6.61723">
        <ele>337</ele>
        <time>2020-12-10T18:40:05+01:00</time>
      </trkpt>
      <trkpt lat="47.63535" lon="6.61607">
        <ele>330</ele>
        <time>2020-12-10T18:40:07+01:00</time>
      </trkpt>
      <trkpt lat="47.63497" lon="6.61564">
        <ele>320</ele>
        <time>2020-12-10T18:40:08+01:00</time>
      </trkpt>
      <trkpt lat="47.63468" lon="6.61637">
        <ele>320</ele>
        <time>2020-12-10T18:40:09+01:00</time>
      </trkpt>
      <trkpt lat="47.63442" lon="6.61637">
        <ele>322</ele>
        <time>2020-12-10T18:40:11+01:00</time>
      </trkpt>
      <trkpt lat="47.63382" lon="6.61422">
        <ele>321</ele>
        <time>2020-12-10T18:40:12+01:00</time>
      </trkpt>
      <trkpt lat="47.63225" lon="6.61594">
        <ele>359</ele>
        <time>2020-12-10T18:40:14+01:00</time>
      </trkpt>
      <trkpt lat="47.62994" lon="6.61791">
        <ele>372</ele>
        <time>2020-12-10T18:40:15+01:00</time>
      </trkpt>
      <trkpt lat="47.62832" lon="6.61826">
        <ele>372</ele>
        <time>2020-12-10T18:40:17+01:00</time>
      </trkpt>
      <trkpt lat="47.62531" lon="6.61542">
        <ele>387</ele>
        <time>2020-12-10T18:40:18+01:00</time>
      </trkpt>
      <trkpt lat="47.62554" lon="6.61714">
        <ele>392</ele>
        <time>2020-12-10T18:40:20+01:00</time>
      </trkpt>
      <trkpt lat="47.62537" lon="6.61877">
        <ele>397</ele>
        <time>2020-12-10T18:40:22+01:00</time>
      </trkpt>
      <trkpt lat="47.62554" lon="6.62315">
        <ele>427</ele>
        <time>2020-12-10T18:40:24+01:00</time>
      </trkpt>
      <trkpt lat="47.62615" lon="6.6274">
        <ele>440</ele>
        <time>2020-12-10T18:40:25+01:00</time>
      </trkpt>
      <trkpt lat="47.62586" lon="6.62766">
        <ele>439</ele>
        <time>2020-12-10T18:40:27+01:00</time>
      </trkpt>
      <trkpt lat="47.62607" lon="6.62894">
        <ele>439</ele>
        <time>2020-12-10T18:40:29+01:00</time>
      </trkpt>
      <trkpt lat="47.62476" lon="6.62997">
        <ele>438</ele>
        <time>2020-12-10T18:40:31+01:00</time>
      </trkpt>
      <trkpt lat="47.62413" lon="6.62989">
        <ele>436</ele>
        <time>2020-12-10T18:40:33+01:00</time>
      </trkpt>
      <trkpt lat="47.6228" lon="6.62916">
        <ele>420</ele>
        <time>2020-12-10T18:40:35+01:00</time>
      </trkpt>
      <trkpt lat="47.62262" lon="6.6304">
        <ele>413</ele>
        <time>2020-12-10T18:40:37+01:00</time>
      </trkpt>
      <trkpt lat="47.62358" lon="6.63332">
        <ele>417</ele>
        <time>2020-12-10T18:40:39+01:00</time>
      </trkpt>
      <trkpt lat="47.62393" lon="6.63564">
        <ele>408</ele>
        <time>2020-12-10T18:40:40+01:00</time>
      </trkpt>
      <trkpt lat="47.62381" lon="6.63607">
        <ele>403</ele>
        <time>2020-12-10T18:40:42+01:00</time>
      </trkpt>
      <trkpt lat="47.62352" lon="6.63487">
        <ele>394</ele>
        <time>2020-12-10T18:40:45+01:00</time>
      </trkpt>
      <trkpt lat="47.62251" lon="6.63199">
        <ele>390</ele>
        <time>2020-12-10T18:40:47+01:00</time>
      </trkpt>
      <trkpt lat="47.62199" lon="6.63002">
        <ele>383</ele>
        <time>2020-12-10T18:40:49+01:00</time>
      </trkpt>
      <trkpt lat="47.62219" lon="6.62774">
        <ele>368</ele>
        <time>2020-12-10T18:40:51+01:00</time>
      </trkpt>
      <trkpt lat="47.6232" lon="6.62744">
        <ele>364</ele>
        <time>2020-12-10T18:40:53+01:00</time>
      </trkpt>
      <trkpt lat="47.62271" lon="6.6271">
        <ele>354</ele>
        <time>2020-12-10T18:40:55+01:00</time>
      </trkpt>
      <trkpt lat="47.621" lon="6.6271">
        <ele>329</ele>
        <time>2020-12-10T18:40:57+01:00</time>
      </trkpt>
      <trkpt lat="47.62126" lon="6.62637">
        <ele>329</ele>
        <time>2020-12-10T18:40:59+01:00</time>
      </trkpt>
      <trkpt lat="47.62002" lon="6.62306">
        <ele>330</ele>
        <time>2020-12-10T18:41:02+01:00</time>
      </trkpt>
      <trkpt lat="47.61814" lon="6.62015">
        <ele>329</ele>
        <time>2020-12-10T18:41:04+01:00</time>
      </trkpt>
      <trkpt lat="47.61776" lon="6.61929">
        <ele>329</ele>
        <time>2020-12-10T18:41:06+01:00</time>
      </trkpt>
      <trkpt lat="47.61768" lon="6.6183">
        <ele>328</ele>
        <time>2020-12-10T18:41:09+01:00</time>
      </trkpt>
      <trkpt lat="47.61743" lon="6.6198">
        <ele>321</ele>
      </trkpt>
      <trkpt lat="47.61659" lon="6.61976">
        <ele>319</ele>
      </trkpt>
      <trkpt lat="47.6159" lon="6.61826">
        <ele>320</ele>
      </trkpt>
      <trkpt lat="47.61532" lon="6.61869">
        <ele>325</ele>
      </trkpt>
      <trkpt lat="47.61477" lon="6.61839">
        <ele>336</ele>
      </trkpt>
      <trkpt lat="47.61457" lon="6.61881">
        <ele>333</ele>
      </trkpt>
      <trkpt lat="47.61405" lon="6.61907">
        <ele>337</ele>
      </trkpt>
      <trkpt lat="47.6135" lon="6.62032">
        <ele>345</ele>
      </trkpt>
      <trkpt lat="47.61329" lon="6.61817">
        <ele>358</ele>
      </trkpt>
      <trkpt lat="47.61457" lon="6.61693">
        <ele>363</ele>
      </trkpt>
      <trkpt lat="47.61483" lon="6.61577">
        <ele>372</ele>
      </trkpt>
      <trkpt lat="47.61413" lon="6.61478">
        <ele>403</ele>
      </trkpt>
      <trkpt lat="47.61292" lon="6.60706">
        <ele>403</ele>
      </trkpt>
      <trkpt lat="47.6128" lon="6.60414">
        <ele>413</ele>
      </trkpt>
      <trkpt lat="47.61101" lon="6.6047">
        <ele>416</ele>
      </trkpt>
      <trkpt lat="47.61101" lon="6.60534">
        <ele>419</ele>
      </trkpt>
      <trkpt lat="47.61075" lon="6.60783">
        <ele>428</ele>
      </trkpt>
      <trkpt lat="47.61112" lon="6.60937">
        <ele>432</ele>
      </trkpt>
      <trkpt lat="47.61002" lon="6.60894">
        <ele>427</ele>
      </trkpt>
      <trkpt lat="47.61005" lon="6.60993">
        <ele>430</ele>
      </trkpt>
      <trkpt lat="47.61075" lon="6.61263">
        <ele>439</ele>
      </trkpt>
      <trkpt lat="47.6111" lon="6.61654">
        <ele>439</ele>
      </trkpt>
      <trkpt lat="47.60835" lon="6.61907">
        <ele>434</ele>
      </trkpt>
      <trkpt lat="47.60765" lon="6.62032">
        <ele>431</ele>
        <time>2020-12-10T18:41:11+01:00</time>
      </trkpt>
      <trkpt lat="47.60673" lon="6.62045">
        <ele>431</ele>
        <time>2020-12-10T18:41:13+01:00</time>
      </trkpt>
      <trkpt lat="47.60508" lon="6.61963">
        <ele>430</ele>
        <time>2020-12-10T18:41:16+01:00</time>
      </trkpt>
      <trkpt lat="47.60392" lon="6.62019">
        <ele>425</ele>
        <time>2020-12-10T18:41:18+01:00</time>
      </trkpt>
      <trkpt lat="47.60215" lon="6.6183">
        <ele>410</ele>
        <time>2020-12-10T18:41:21+01:00</time>
      </trkpt>
      <trkpt lat="47.60204" lon="6.61736">
        <ele>406</ele>
        <time>2020-12-10T18:41:23+01:00</time>
      </trkpt>
      <trkpt lat="47.60134" lon="6.61718">
        <ele>401</ele>
        <time>2020-12-10T18:41:26+01:00</time>
      </trkpt>
      <trkpt lat="47.60077" lon="6.6162">
        <ele>396</ele>
        <time>2020-12-10T18:41:28+01:00</time>
      </trkpt>
      <trkpt lat="47.59975" lon="6.61718">
        <ele>391</ele>
        <time>2020-12-10T18:41:31+01:00</time>
      </trkpt>
      <trkpt lat="47.59888" lon="6.6171">
        <ele>400</ele>
        <time>2020-12-10T18:41:34+01:00</time>
      </trkpt>
      <trkpt lat="47.597" lon="6.61916">
        <ele>418</ele>
        <time>2020-12-10T18:41:36+01:00</time>
      </trkpt>
      <trkpt lat="47.59744" lon="6.6204">
        <ele>408</ele>
        <time>2020-12-10T18:41:39+01:00</time>
      </trkpt>
      <trkpt lat="47.59877" lon="6.62109">
        <ele>390</ele>
        <time>2020-12-10T18:41:42+01:00</time>
      </trkpt>
      <trkpt lat="47.60022" lon="6.62225">
        <ele>369</ele>
        <time>2020-12-10T18:41:45+01:00</time>
      </trkpt>
      <trkpt lat="47.60062" lon="6.62401">
        <ele>360</ele>
        <time>2020-12-10T18:41:47+01:00</time>
      </trkpt>
      <trkpt lat="47.60003" lon="6.62482">
        <ele>360</ele>
        <time>2020-12-10T18:41:50+01:00</time>
      </trkpt>
      <trkpt lat="47.60066" lon="6.62503">
        <ele>362.9</ele>
      </trkpt>
      <trkpt lat="47.60066" lon="6.62503">
        <ele>362.9</ele>
      </trkpt>
      <trkpt lat="47.6005" lon="6.62655">
        <ele>359.4</ele>
      </trkpt>
      <trkpt lat="47.6005" lon="6.62655">
        <ele>359.4</ele>
      </trkpt>
      <trkpt lat="47.59969" lon="6.62807">
        <ele>363.2</ele>
      </trkpt>
      <trkpt lat="47.59969" lon="6.62807">
        <ele>363.2</ele>
      </trkpt>
      <trkpt lat="47.60007" lon="6.62871">
        <ele>358.4</ele>
      </trkpt>
      <trkpt lat="47.60007" lon="6.62871">
        <ele>358.4</ele>
      </trkpt>
      <trkpt lat="47.60125" lon="6.62759">
        <ele>347.6</ele>
      </trkpt>
      <trkpt lat="47.60125" lon="6.62759">
        <ele>347.6</ele>
      </trkpt>
      <trkpt lat="47.60196" lon="6.62847">
        <ele>356.8</ele>
      </trkpt>
      <trkpt lat="47.60196" lon="6.62847">
        <ele>356.8</ele>
      </trkpt>
      <trkpt lat="47.60287" lon="6.62975">
        <ele>350.3</ele>
      </trkpt>
      <trkpt lat="47.60287" lon="6.62975">
        <ele>350.3</ele>
      </trkpt>
      <trkpt lat="47.60352" lon="6.63007">
        <ele>342.2</ele>
      </trkpt>
      <trkpt lat="47.60352" lon="6.63007">
        <ele>342.2</ele>
      </trkpt>
    </trkseg>
  </trk>
</gpx>